FW8202 Weather Reports


time (UTC)temp
C
wind
direction
speed
KPH
gust
KPH
rain 1hr
cm
rain 24hr
cm
rain mn
cm
humidity
%
barometer
mb
20260507001940 20 325 0.0 0.0 0.00 0.00 0.00 65 1015.6
20260507000933 20 317 0.0 0.0 0.00 0.00 0.00 64 1015.6
20260506235901 20 262 0.0 0.0 0.00 0.00 0.00 63 1015.6
20260506233749 21 30 0.0 0.0 0.00 0.00 0.00 59 1015.5
20260506232740 21 163 0.0 0.0 0.00 0.00 0.00 58 1015.6
20260506231757 22 44 0.0 0.0 0.00 0.00 0.00 56 1015.6
20260506230814 22 235 0.0 0.0 0.00 0.00 0.00 58 1015.6
20260506225809 22 36 0.0 0.0 0.00 0.00 0.00 59 1015.8
20260506224755 22 219 0.0 0.0 0.00 0.00 0.00 59 1015.9
20260506223814 22 206 0.0 0.0 0.00 0.00 0.00 59 1016.1
20260506222751 22 250 0.0 0.0 0.00 0.00 0.00 59 1016.2
20260506221741 22 257 0.0 0.0 0.00 0.00 0.00 58 1016.3
20260506220759 22 244 0.0 0.0 0.00 0.00 0.00 58 1016.4
20260506215755 22 229 0.0 0.0 0.00 0.00 0.00 57 1016.5
20260506214735 22 231 0.0 0.0 0.00 0.00 0.00 59 1016.6
20260506210341 22 132 0.0 0.0 0.00 0.00 0.00 60 1016.9
20260506205356 21 112 0.0 0.0 0.00 0.00 0.00 61 1017.0
20260506204419 21 285 0.0 0.0 0.00 0.00 0.00 61 1017.2
20260506202243 21 161 0.0 0.0 0.00 0.00 0.00 62 1017.5
20260506201211 21 161 0.0 0.0 0.00 0.00 0.00 62 1017.6
20260506200206 21 89 0.0 0.0 0.00 0.00 0.00 62 1017.7
20260506194019 20 240 0.0 0.0 0.00 0.00 0.00 64 1017.9
20260506193022 20 242 0.0 0.0 0.00 0.00 0.00 67 1017.9
20260506191958 20 242 0.0 0.0 0.00 0.00 0.00 68 1018.0
20260506190949 20 232 0.0 0.0 0.00 0.00 0.00 70 1018.1
20260506185917 19 230 0.0 0.0 0.00 0.00 0.00 70 1018.1
20260506184938 19 148 0.0 0.0 0.00 0.00 0.00 70 1018.2
20260506183954 19 148 0.0 0.0 0.00 0.00 0.00 72 1018.2
20260506183015 19 150 0.0 0.0 0.00 0.00 0.00 72 1018.1
20260506180852 18 147 0.0 0.0 0.00 0.00 0.00 73 1018.3
20260506175858 17 149 0.0 0.0 0.00 0.00 0.00 75 1018.3
20260506174829 17 143 0.0 0.0 0.00 0.00 0.00 77 1018.4
20260506173850 16 142 0.0 0.0 0.00 0.00 0.00 79 1018.4
20260506172906 15 143 0.0 0.0 0.00 0.00 0.00 81 1018.4
20260506171901 15 141 0.0 0.0 0.00 0.00 0.00 83 1018.4
20260506170916 14 141 0.0 0.0 0.00 0.00 0.00 85 1018.4
20260506165843 13 142 0.0 0.0 0.00 0.00 0.00 87 1018.3
20260506164843 13 142 0.0 0.0 0.00 0.00 0.00 89 1018.3
20260506163837 13 142 0.0 0.0 0.00 0.00 0.00 89 1018.3
20260506162817 13 142 0.0 0.0 0.00 0.00 0.00 91 1018.3
20260506161831 12 142 0.0 0.0 0.00 0.00 0.00 91 1018.3
20260506160832 12 142 0.0 0.0 0.00 0.00 0.00 92 1018.4
20260506060804 10 144 0.0 0.0 0.00 0.00 0.00 88 1017.1
20260506050653 11 144 0.0 0.0 0.00 0.00 0.00 86 1016.6
20260506044637 11 144 0.0 0.0 0.00 0.00 0.00 85 1016.3
20260506043650 11 144 0.0 0.0 0.00 0.00 0.00 84 1016.2
20260506040509 12 144 0.0 0.0 0.00 0.00 0.00 83 1015.8
20260506035445 12 144 0.0 0.0 0.00 0.00 0.00 82 1015.7
20260506034504 12 144 0.0 0.0 0.00 0.00 0.00 81 1015.6